Regional Weather Roundup
Issued by NWS

Home | Current Version | Previous Version | Text Only | Print | Product List | Glossary On
Versions: 1 2 3 4 5 6 7 8 9 10 11 12 13 14 15 16 17 18 19 20 21 22 23 24 25 26 27 28 29 30 31 32 33 34 35 36 37 38 39 40 41 42 43 44 45 46 47 48 49 50
000
ASUS43 KMPX 310110
RWRMN
WEATHER ROUNDUP FOR MINNESOTA
NATIONAL WEATHER SERVICE TWIN CITIES/CHANHASSEN MN
800 PM CDT WED JUL 30 2014


NOTE: "FAIR" INDICATES FEW OR NO CLOUDS BELOW 12,000 FEET WITH NO
SIGNIFICANT WEATHER AND/OR OBSTRUCTIONS TO VISIBILITY. N/A MEANS
CURRENT SKY AND/OR WEATHER CONDITIONS ARE NOT AVAILABLE.

MNZ060>063-068>070-310200-
   Twin Cities Metro

CITY           SKY/WX    TMP DP  RH WIND       PRES   REMARKS
TWIN CITIES    CLEAR     77  55  46 W12       30.03S
ST PAUL        CLEAR     76  53  44 W15       30.02S
CRYSTAL        CLEAR     77  54  44 W7        30.02S
BLAINE         CLEAR     77  55  47 MISG      30.02F
LAKEVILLE      CLEAR     72  57  60 W5        30.04R
EDEN PRAIRIE   CLEAR     75  56  51 W7        30.03S
SOUTH ST PAUL  CLEAR     76  53  44 W6        30.02S
LAKE ELMO      FAIR      72  55  56 NW5       30.03S
$$
MNZ001>005-007-008-013>017-022>024-027-028-310200-
   Northwest Minnesota

CITY           SKY/WX    TMP DP  RH WIND       PRES   REMARKS
BEMIDJI        CLEAR     71  54  54 W7        30.05S
HALLOCK        CLEAR     77  59  53 NW3       30.03S
ROSEAU         CLEAR     73  61  64 W8        30.02S
WARROAD        CLEAR     75  63  64 W5        30.01S
THIEF RVR FALL CLEAR     73  57  56 W5        30.04F
CROOKSTON      CLEAR     73  63  68 N3        30.04F
FOSSTON        CLEAR     72  57  60 CALM      30.06S
DETROIT LAKES  CLEAR     72  55  56 N3        30.08S
MOORHEAD       CLEAR     75  61  60 CALM      30.05S
PARK RAPIDS    CLEAR     71  55  56 NW7       30.06S
$$
MNZ006-009>011-018-025>026-310200-
   North Central Minnesota

CITY           SKY/WX    TMP DP  RH WIND       PRES   REMARKS
BAUDETTE       CLOUDY    74  59  59 CALM      30.01S
FLAG ISLAND    PTCLDY    75  63  64 NW7       29.98S
INTL FALLS     PTCLDY    71  60  68 W5        29.98S
WASKISH        CLEAR     73  63  68 W8        30.01F
BIG FORK       CLEAR     72  57  60 W3        30.02S
LONGVILLE      CLEAR     70  61  73 W3        30.04S
GRAND RAPIDS   CLEAR     72  55  56 NW8       30.02S
CRANE LAKE     MOCLDY    66  63  88 CALM      29.99S
ORR            CLEAR     72  57  60 NW3       29.97S
COOK           CLEAR     72  57  60 NW3       29.99S
$$
MNZ012-019>021-037-310200-
   Northeast Minnesota

CITY           SKY/WX    TMP DP  RH WIND       PRES   REMARKS
DULUTH         PTCLDY    72  57  59 NW8       29.98S
ELY            CLEAR     68  59  73 NW3       29.98S
HIBBING        PTCLDY    72  56  57 W6        29.99F
EVELETH        PTCLDY    72  54  53 NW8       30.00S
DULUTH HARBOR  PTCLDY    75  63  64 W7        29.96S
TWO HARBORS    PTCLDY    70  59  68 CALM      29.95S
SILVER BAY     PTCLDY    66  64  94 CALM      29.94S
GRAND MARAIS     N/A     55  51  86 E3        29.95R
G MARAIS ARPRT PTCLDY    63  52  67 NW3       29.99R
$$
MNZ029>031-032-039>041-046>048-054>057-064-310200-
   West Central Minnesota

CITY           SKY/WX    TMP DP  RH WIND       PRES   REMARKS
FERGUS FALLS   CLEAR     73  54  49 CALM      30.05S
WHEATON        CLEAR     73  57  56 W3        30.08S
MORRIS         CLEAR     73  61  64 W5        30.06S
ALEXANDRIA     CLEAR     74  54  49 NW5       30.08F
ELBOW LAKE     FAIR      73  58  59 NW3       30.06S
WADENA         CLEAR     70  55  60 CALM      30.06S
GLENWOOD       CLEAR     72  55  56 NW6       30.08S
APPLETON       CLEAR     75  59  57 W3        30.06F
BENSON         CLEAR     73  57  56 NW3       30.07S
ORTONVILLE     CLEAR     75  57  53 N3        30.07F
MADISON        CLEAR     75  61  60 N3        30.07S
WILLMAR        FAIR      73  57  56 W3        30.08S
$$
MNZ033>034-036-042>043-049>051-058-059-310200-
   Central Minnesota

CITY           SKY/WX    TMP DP  RH WIND       PRES   REMARKS
ST CLOUD       CLEAR     76  54  46 NW8       30.03F
SAUK CENTRE    FAIR      74  55  52 NW6       30.06F
PAYNESVILLE    MOCLDY    71  55  57 W3        30.07S
AITKIN         CLEAR     73  61  64 CALM      30.02S
PINE RIVER     CLEAR     72  57  60 NW5       30.07S
BRAINERD       PTCLDY    73  57  57 NW7       30.04S
STAPLES        CLEAR     70  54  56 NW5       30.06S
LONG PRAIRIE   FAIR      72  54  53 W5        30.07S
LITTLE FALLS   CLEAR     73  52  46 W5        30.05S
LITCHFIELD     CLEAR     75  59  57 W3        30.06F
BUFFALO        CLEAR     75  54  48 W5        30.05S
MAPLE LAKE     CLEAR     74  59  58 W5        30.05S
$$
MNZ037-044-045-052-053-310200-
   East Central Minnesota

CITY           SKY/WX    TMP DP  RH WIND       PRES   REMARKS
PRINCETON      CLEAR     75  57  53 W6        30.03S
MORA           CLEAR     70  55  60 CALM      30.04S
CAMBRIDGE      CLEAR     75  59  57 W3        30.01S
RUSH CITY      CLEAR     72  59  64 CALM      30.02S
MOOSE LAKE     CLEAR     72  57  60 W5        29.99S
HINCKLEY       FAIR      72  59  64 W3        30.01S
CLOQUET        CLEAR     72  57  60 W8        29.99S
MCGREGOR       CLEAR     72  57  60 W5        30.02S
$$
MNZ071>073-080-081-089-090-097-098-310200-
   Southwest Minnesota

CITY           SKY/WX    TMP DP  RH WIND       PRES   REMARKS
MONTEVIDEO     CLEAR     75  55  50 N3        30.08S
GRANITE FALLS  CLEAR     73  58  57 CALM      30.09S
CANBY          CLEAR     74  60  61 CALM      30.09S
MARSHALL       CLEAR     73  55  53 NE5       30.07F
REDWOOD FALLS  CLEAR     74  56  53 NW5       30.07S
OLIVIA         CLEAR     73  59  60 W3        30.06F
PIPESTONE      CLEAR     73  55  53 NW3       30.11S
WINDOM         CLEAR     73  59  60 CALM      30.10S
WORTHINGTON    PTCLDY    73  57  56 CALM      30.12S
JACKSON        CLEAR     70  61  73 CALM      30.11S
TRACY          CLEAR     73  58  60 CALM      30.09F
SLAYTON        CLEAR     73  56  53 CALM      30.11S
$$
MNZ065>067-074>077-082>085-091>093-310200-
   South Central Minnesota

CITY           SKY/WX    TMP DP  RH WIND       PRES   REMARKS
MANKATO        CLEAR     73  55  53 W7        30.06F
NEW ULM        CLEAR     73  59  60 W3        30.07S
ST JAMES       CLEAR     75  59  57 W3        30.09S
FAIRMONT       CLEAR     73  48  40 NW6       30.09S
GLENCOE        CLEAR     75  56  50 W5        30.05F
FARIBAULT      CLEAR     75  54  46 W6        30.06S
OWATONNA       CLEAR     72  57  60 W5        30.06S
WASECA         CLEAR     72  55  56 W5        30.08S
ALBERT LEA     CLEAR     73  57  56 W5        30.07S
$$
MNZ078>079-086>088-094>096-310200-
   Southeast Minnesota

CITY           SKY/WX    TMP DP  RH WIND       PRES   REMARKS
ROCHESTER      CLEAR     71  58  63 W7        30.06S
RED WING       CLEAR     75  57  53 W6        30.01R
STANTON        CLEAR     74  57  56 W5        30.03S
DODGE CENTER   CLEAR     73  57  56 NW7       30.06S
WINONA         CLEAR     73  59  60 W3        30.02S
AUSTIN         CLEAR     73  57  56 NW6       30.06S
PRESTON        CLEAR     70  66  85 CALM      30.06R
$$
ABBREVIATIONS USED IN REMARKS
   TC - TEMPERATURES IN CELSIUS
  WCI - WIND CHILL INDEX
   HX - HEAT INDEX
  VSB - VISIBILITY
$$


USA.gov is the U.S. government's official web portal to all federal, state and local government web resources and services.